[[{"header":{"parameterUnit":"m.s-1","parameterCategory":1,"la1":30.2991,"la2":30.254,"lo1":-89.0895,"lo2":-89.0444,"dy":0.0017,"dx":0.0017,"nx":28,"ny":28,"refTime":"2024-09-28T21:00:00:Z","depth":0,"parameterNumber":2,"parameterNumberName":"U-component_of_WINDS"},"data":[0,0,0,0,0,0,0,0,0,0,0,0,0,0,0,0,0,0,0,0,0,0,0,0,0,0,0,0,0,0,0,0,0,0,0,0,0,0,0,0,0,0,0,0,0,0,0,0,0,0,0,0,0,0,0,0,0,0,5.357,5.3571,0,5.3716,5.3718,5.372,5.3614,5.3609,5.3605,5.36,5.3753,5.3762,5.377,0,0,0,0,0,0,0,0,0,0,0,0,0,5.3199,5.3207,5.357,5.3571,5.3573,5.3716,5.3718,5.372,5.3615,5.3609,5.3604,5.3598,5.3751,5.3761,5.3771,0,0,0,0,0,0,0,0,0,0,0,0,0,5.3355,5.3209,5.3569,5.3538,5.3537,5.3716,5.3718,5.372,5.3616,5.3609,5.3602,5.3596,5.3747,5.376,5.3772,5.3991,0,0,5.3811,5.3816,0,0,0,0,0,0,0,0,5.3346,5.3368,5.3541,5.354,5.3539,5.364,5.3643,5.3811,5.3618,5.3586,5.36,5.3592,5.3721,5.3736,5.3779,5.3998,5.4004,5.3812,5.382,5.3825,5.3829,0,0,0,0,0,0,0,5.3335,5.3362,5.3628,5.3543,5.3543,5.3517,5.3531,5.3675,5.3692,5.3588,5.3581,5.36,5.372,5.3767,5.3782,5.4007,5.3812,5.3823,5.3831,5.3836,5.4409,5.4416,0,0,0,0,0,0,5.3327,5.3353,5.3623,5.3632,5.3423,5.3529,5.3545,5.3615,5.369,5.3694,5.3605,5.3594,5.3749,5.3767,5.3787,5.4045,5.3825,5.3837,5.3844,5.4401,5.4411,5.4419,0,0,0,0,0,0,5.332,5.3352,5.3617,5.3491,5.3522,5.3543,5.3622,5.3621,5.3668,5.3702,5.3705,5.3651,5.3744,5.3769,5.394,5.4049,5.3843,5.3854,5.4392,5.4404,5.4415,5.4565,0,0,0,0,0,0,5.331,5.335,5.3434,5.3493,5.353,5.3768,5.3629,5.3629,5.369,5.3676,5.3745,5.375,5.374,5.3921,5.3952,5.4062,5.3864,5.4383,5.4398,5.4411,5.455,5.458,5.4605,0,0,0,0,0,5.3297,5.3471,5.3438,5.3472,5.3634,5.3775,5.3795,5.378,5.3699,5.3783,5.3804,5.3748,5.4032,5.394,5.3974,5.4089,5.4376,5.4393,5.441,5.4538,5.4574,5.4605,0,0,0,0,0,0,5.3426,5.3479,5.3443,5.3642,5.3704,5.3756,5.3862,5.3819,5.3906,5.389,5.3868,5.3884,5.4063,5.4093,5.399,5.4303,5.4191,5.4216,5.4276,5.4311,5.4338,5.4327,5.3874,0,0,0,0,0,5.3477,5.3586,5.3627,5.3799,5.3832,5.3842,5.3902,5.3884,5.3949,5.3975,5.4009,5.4074,5.4177,5.4246,5.4344,5.4554,5.4566,5.465,5.4678,5.47,5.4722,5.4832,5.4869,5.4475,5.4475,5.4475,0,0,5.3585,5.3627,5.3698,5.3825,5.3872,5.3985,5.3865,5.399,5.4074,5.3994,5.4156,5.4184,5.4255,5.4446,5.4532,5.4477,5.4833,5.4722,5.474,5.4749,5.4854,5.4891,5.4924,5.4487,5.4485,5.4483,0,0,5.3838,5.3882,5.4028,5.4076,5.4147,5.4152,5.4188,5.4246,5.4261,5.4423,5.4365,5.4464,5.4644,5.4695,5.4746,5.5016,5.4967,5.5049,5.5193,5.5301,5.5332,5.5359,5.5453,5.5487,5.507,5.5071,5.5071,0,5.3963,5.413,5.4109,5.4238,5.4295,5.4227,5.4374,5.4422,5.4522,5.4563,5.45,5.4721,5.4765,5.4965,5.5031,5.5075,5.5113,5.504,5.5329,5.5356,5.5381,5.547,5.5506,5.508,5.5079,5.5078,5.5077,0,5.4279,5.4396,5.4506,5.4602,5.4671,5.481,5.4808,5.4882,5.4858,5.4869,5.5034,5.5083,5.5188,5.5235,5.5214,5.5432,5.5395,5.5331,5.5218,5.5428,5.5512,5.5546,5.5093,5.509,5.5087,5.5085,0,0,5.4618,5.4698,5.4739,5.478,5.4852,5.4943,5.5077,5.5178,5.524,5.5311,5.5421,5.5574,5.5514,5.5571,5.5554,5.565,5.5857,5.5573,5.5575,5.5622,5.6098,5.6144,5.6184,5.5825,5.5832,5.5837,5.6091,0,5.4873,5.5105,5.5089,5.5308,5.5414,5.535,5.5467,5.5523,5.5538,5.563,5.5646,5.5753,5.5667,5.5701,5.5792,5.5813,5.5952,5.5794,5.5927,5.5932,5.5909,5.6228,5.6278,5.6515,5.6124,5.6129,5.6133,0,5.5202,5.5281,5.551,5.5564,5.5608,5.5713,5.5802,5.5892,5.5955,5.5958,5.602,5.5988,5.6122,5.6006,5.619,5.6083,5.6137,5.6155,5.6164,5.6174,5.6044,5.6245,5.6591,5.6626,5.6185,5.6181,5.6177,0,5.5423,5.5588,5.5745,5.5783,5.585,5.5924,5.5956,5.6011,5.6072,5.6151,5.619,5.6284,5.6335,5.6409,5.6402,5.6319,5.6588,5.6473,5.6593,5.6594,5.6652,5.6648,5.7009,5.669,5.669,5.6689,5.6688,0,5.5708,5.585,5.5844,5.5941,5.6098,5.6078,5.6233,5.6257,5.6306,5.6406,5.6357,5.6452,5.6438,5.6533,5.6528,5.668,5.6704,5.671,5.6706,5.6713,5.6712,5.6746,5.6729,5.6699,5.6697,5.6695,5.6693,0,5.5981,5.5983,5.615,5.6199,5.6214,5.6327,5.6369,5.646,5.6469,5.6596,5.6624,5.664,5.6748,5.6749,5.6874,5.6871,5.7055,5.7035,5.7034,5.7029,5.7149,5.7136,5.7543,5.7594,5.7244,5.7248,5.7251,0,5.6161,5.6269,5.6328,5.6391,5.6426,5.6528,5.6589,5.6573,5.6639,5.6716,5.6798,5.6902,5.6983,5.716,5.7182,5.7277,5.7257,5.7393,5.7271,5.7273,5.7256,5.7248,5.7258,5.7416,5.742,5.7423,5.7426,0,5.6481,5.6476,5.6565,5.6655,5.6729,5.6799,5.6863,5.6918,5.6909,5.6985,5.7094,5.7158,5.7284,5.7387,5.7478,5.751,5.7467,5.7464,5.7496,5.7503,5.7497,5.7499,5.7096,5.7455,5.7452,5.745,5.7448,5.7447,5.6712,5.6803,5.6858,5.6958,5.7005,5.7066,5.7152,5.7172,5.7262,5.7363,5.7348,5.747,5.7527,5.7645,5.7685,5.7779,5.7732,5.778,5.7792,5.7803,5.7815,5.7484,5.7796,5.7796,5.7795,5.7794,5.7794,0,5.7026,5.7058,5.7151,5.7241,5.732,5.7271,5.7339,5.7408,5.7515,5.7572,5.7653,5.7778,5.7877,5.7906,5.8002,5.8072,5.8054,5.8097,5.8091,5.8098,5.7853,5.7814,5.811,5.811,5.811,5.811,5.811,5.811,5.7199,5.7349,5.7351,5.7524,5.7554,5.7672,5.7715,5.777,5.7815,5.7956,5.8037,5.8055,5.8101,5.8199,5.8287,5.8293,5.8329,5.838,5.8378,5.8148,5.8116,5.8086,5.8049,5.8389,5.8389,5.8615,5.8617,5.8619]},{"header":{"parameterUnit":"m.s-1","parameterCategory":1,"la1":30.2991,"la2":30.254,"lo1":-89.0895,"lo2":-89.0444,"dy":0.0017,"dx":0.0017,"nx":28,"ny":28,"refTime":"2024-09-28T21:00:00:Z","depth":0,"parameterNumber":3,"parameterNumberName":"V-component_of_WINDS"},"data":[0,0,0,0,0,0,0,0,0,0,0,0,0,0,0,0,0,0,0,0,0,0,0,0,0,0,0,0,0,0,0,0,0,0,0,0,0,0,0,0,0,0,0,0,0,0,0,0,0,0,0,0,0,0,0,0,0,0,2.4356,2.4356,0,2.4414,2.4414,2.4415,2.439,2.4389,2.4387,2.4386,2.4444,2.4446,2.4449,0,0,0,0,0,0,0,0,0,0,0,0,0,2.422,2.4223,2.4355,2.4356,2.4357,2.4413,2.4414,2.4415,2.439,2.4389,2.4387,2.4385,2.4443,2.4446,2.4449,0,0,0,0,0,0,0,0,0,0,0,0,0,2.4278,2.4223,2.4355,2.4352,2.4352,2.4413,2.4414,2.4415,2.4391,2.4389,2.4387,2.4385,2.4442,2.4446,2.445,2.4518,0,0,2.4463,2.4465,0,0,0,0,0,0,0,0,2.4275,2.4283,2.4351,2.4352,2.4352,2.4393,2.4388,2.445,2.4391,2.4376,2.4386,2.4384,2.4428,2.4433,2.4449,2.4521,2.4523,2.4463,2.4466,2.4468,2.4469,0,0,0,0,0,0,0,2.4271,2.4281,2.4378,2.4352,2.4353,2.4346,2.4352,2.4399,2.4413,2.4377,2.4375,2.4383,2.4428,2.4445,2.445,2.4524,2.4463,2.4467,2.4469,2.4471,2.4652,2.4654,0,0,0,0,0,0,2.4267,2.4278,2.4377,2.438,2.4308,2.435,2.4357,2.4382,2.4412,2.4415,2.4384,2.4381,2.4439,2.4445,2.4452,2.4532,2.4468,2.4472,2.4474,2.465,2.4652,2.4655,0,0,0,0,0,0,2.4265,2.4277,2.4374,2.4328,2.434,2.4355,2.4383,2.4384,2.4401,2.4418,2.442,2.4399,2.4437,2.4446,2.4501,2.4534,2.4473,2.4477,2.4647,2.4651,2.4654,2.4694,0,0,0,0,0,0,2.4261,2.4276,2.4303,2.4329,2.4343,2.4424,2.4385,2.4387,2.4408,2.4405,2.4433,2.4435,2.4436,2.4495,2.4506,2.4538,2.4481,2.4644,2.4649,2.4653,2.469,2.4698,2.4706,0,0,0,0,0,2.4256,2.4312,2.4304,2.4316,2.4377,2.4426,2.4433,2.4434,2.4411,2.4438,2.4448,2.4434,2.4529,2.4501,2.4513,2.4547,2.4642,2.4647,2.4652,2.4686,2.4697,2.4705,0,0,0,0,0,0,2.4288,2.4315,2.4307,2.4373,2.4397,2.4422,2.4455,2.4446,2.4476,2.4472,2.4471,2.4477,2.4534,2.4546,2.4515,2.4613,2.4582,2.4589,2.4603,2.4614,2.4621,2.4617,2.4484,0,0,0,0,0,2.4303,2.4342,2.4363,2.4419,2.4431,2.4441,2.4463,2.4461,2.4486,2.4496,2.451,2.4534,2.4569,2.4592,2.4625,2.4691,2.4696,2.4721,2.4729,2.4735,2.4741,2.4775,2.4786,2.4672,2.4672,2.4671,0,0,2.4334,2.4354,2.4378,2.4426,2.4444,2.4482,2.445,2.4492,2.452,2.4502,2.4555,2.4566,2.4593,2.4653,2.4681,2.4665,2.4774,2.4742,2.4747,2.4749,2.4781,2.4792,2.4802,2.4675,2.4674,2.4674,0,0,2.441,2.443,2.4477,2.4497,2.4525,2.4531,2.4542,2.4568,2.4575,2.4628,2.4614,2.4647,2.4707,2.4726,2.4744,2.4824,2.4812,2.4835,2.4876,2.4909,2.4918,2.4926,2.4953,2.4963,2.4842,2.4842,2.4842,0,2.4445,2.4503,2.4503,2.4546,2.4567,2.4552,2.4599,2.4618,2.4655,2.4669,2.4652,2.4726,2.4743,2.4806,2.4826,2.4841,2.4853,2.4832,2.4917,2.4925,2.4932,2.4958,2.4969,2.4844,2.4844,2.4844,2.4843,0,2.4543,2.4584,2.4619,2.4656,2.468,2.4725,2.4731,2.4756,2.4751,2.4759,2.4812,2.4831,2.4867,2.4882,2.4879,2.4945,2.4934,2.4917,2.4885,2.4946,2.497,2.498,2.4848,2.4847,2.4846,2.4846,0,0,2.4642,2.4677,2.469,2.4705,2.4735,2.4766,2.4809,2.4844,2.4865,2.4891,2.4926,2.4977,2.496,2.498,2.4978,2.5007,2.5068,2.4986,2.4987,2.4999,2.514,2.5152,2.5163,2.506,2.5062,2.5063,2.5137,0,2.4719,2.4796,2.4797,2.4867,2.4903,2.4889,2.4926,2.4947,2.4955,2.4986,2.4994,2.5029,2.5006,2.5017,2.5045,2.5055,2.5096,2.5049,2.5091,2.5093,2.5084,2.5176,2.519,2.5258,2.5146,2.5148,2.5149,0,2.4819,2.4848,2.4922,2.4945,2.496,2.4994,2.5025,2.5055,2.5078,2.5082,2.5103,2.5096,2.5139,2.5106,2.5163,2.5132,2.5149,2.5155,2.5158,2.5161,2.5124,2.518,2.528,2.529,2.5165,2.5163,2.5162,0,2.4882,2.4939,2.499,2.5004,2.5032,2.5056,2.5069,2.509,2.511,2.5137,2.515,2.5182,2.5199,2.5223,2.5224,2.52,2.5282,2.5249,2.5284,2.5284,2.5301,2.53,2.5404,2.5314,2.5314,2.5314,2.5314,0,2.4967,2.5012,2.5019,2.505,2.51,2.5099,2.5148,2.5159,2.5177,2.5209,2.5199,2.5229,2.5229,2.5259,2.526,2.5307,2.5315,2.5317,2.5317,2.5318,2.5317,2.5328,2.5323,2.5317,2.5316,2.5316,2.5315,0,2.5045,2.5051,2.5106,2.5127,2.5134,2.5169,2.5187,2.5216,2.5222,2.5263,2.5272,2.5281,2.5316,2.532,2.5361,2.5361,2.5417,2.5412,2.5409,2.5408,2.5442,2.5438,2.5555,2.557,2.5472,2.5473,2.5474,0,2.5098,2.5133,2.5158,2.5179,2.5193,2.5227,2.5247,2.5247,2.5269,2.5297,2.5322,2.5356,2.5383,2.5439,2.5448,2.5479,2.5474,2.5513,2.5478,2.5477,2.5472,2.547,2.5472,2.5519,2.552,2.5521,2.5522,0,2.5192,2.5193,2.5224,2.5255,2.528,2.5305,2.5328,2.5345,2.5348,2.5372,2.5408,2.5429,2.547,2.5503,2.5532,2.5544,2.5533,2.5533,2.5542,2.5543,2.5539,2.554,2.5426,2.553,2.5529,2.5528,2.5528,2.5528,2.5258,2.5287,2.5309,2.5343,2.536,2.5382,2.541,2.5419,2.5449,2.5482,2.548,2.5519,2.5539,2.5578,2.5591,2.562,2.5607,2.5621,2.5625,2.5628,2.563,2.5535,2.5626,2.5626,2.5625,2.5625,2.5625,0,2.535,2.5363,2.5394,2.5426,2.5452,2.5441,2.5465,2.5487,2.5522,2.5542,2.5568,2.5608,2.5639,2.5651,2.5681,2.5702,2.5698,2.571,2.5708,2.571,2.5641,2.5629,2.5713,2.5713,2.5713,2.5713,2.5713,2.5713,2.54,2.5449,2.5452,2.5508,2.552,2.5558,2.5573,2.5592,2.5608,2.5653,2.5679,2.5687,2.5703,2.5734,2.5761,2.5764,2.5775,2.5789,2.5789,2.5724,2.5715,2.5707,2.5696,2.5792,2.5792,2.5855,2.5856,2.5856]}]]